Orbital Elements at Epoch 2459000.5 (2020-May-31.0) TDB
Reference: JPL 18 (heliocentric ecliptic J2000)
Element | Value | Uncertainty (1-sigma) | Units |
e | .2012638245776724 | 4.2549e-08 | |
a | 2.223642982667256 | 1.198e-08 | au |
q | 1.776104091480342 | 9.982e-08 | au |
i | 5.799565569543488 | 4.4064e-06 | deg |
node | 70.86771019017884 | 4.2029e-05 | deg |
peri | 281.9724777077284 | 4.5063e-05 | deg |
M | 308.7814128447984 | 1.1814e-05 | deg |
tp | 2459172.814217022697 (2020-Nov-19.31421702) | 3.9438e-05 | TDB |
period | 1211.144656142102 3.32 | 9.7875e-06 2.68e-08 | d yr |
n | .2972394735627367 | 2.4021e-09 | deg/d |
Q | 2.671181873854171 | 1.4391e-08 | au |
|
| | Orbit Determination Parameters
Additional Information
|